User: anonymous   Login
Location: Unspecified
(0.0000°N, 0.0000°E)
Time: 16:04:54
(UTC+00:00)
Language:

NOSS 2-3 (D) - Orbit

View from above orbital plane
View from above orbital plane
View from above satellite
View from above satellite

Ground track
Ground track

The orbit data is extracted from the following two-line orbital elements,

1 23862U 96029D   20039.09983245 0.00000000  00000-0  00000-0 0    04
2 23862  63.3341  89.1794 0692958  21.6581 338.3419 13.40875104    07
Epoch (UTC): 08 February 2020 02:23:45
Eccentricity: 0.0692958
inclination: 63.3341°
perigee height: 587 km
apogee height: 1624 km
right ascension of ascending node: 89.1794°
argument of perigee: 21.6581°
revolutions per day: 13.40875104
mean anomaly at epoch: 338.3419°
orbit number at epoch: 0

The dashed part of the orbit path shows where the satellite is in the earth's shadow,  

DLR